Weather History for Hillsdale, MI

Change the Weather History Date:

Tuesday, January 29, 2013

  Actual Average Record
Temperature  
Mean Temperature 47 °F -  
Max Temperature 56 °F 30 °F 56 °F (2013)
Min Temperature 38 °F 13 °F -11 °F (1977)
Degree Days  
Heating Degree Days 18    
Moisture  
Dew Point 50 °F    
Average Humidity 99    
Maximum Humidity 100    
Minimum Humidity 96    
Precipitation  
Precipitation 0.00 in - - ()
Sea Level Pressure  
Sea Level Pressure 29.76 in    
Wind  
Wind Speed 9 mph (South)    
Max Wind Speed 18 mph    
Max Gust Speed 28 mph    
Visibility 2 miles    
Events Fog , Rain    
Averages and records for this station are not official NWS values.
T = Trace of Precipitation, MM = Missing Value Source: NWS Daily Summary

Daily Weather History Graph

Daily Weather History Graph

Search for Another Location

Airport:

Trip Planner

Search our weather history database for the weather conditions in past years. The results will help you decide how hot, cold, wet, or windy it might be!

Date:

Astronomy

Jan. 29, 2013 Rise Set
Actual Time 7:53 AM EST 5:49 PM EST
Civil Twilight 7:23 AM EST 6:19 PM EST
Nautical Twilight 6:50 AM EST 6:53 PM EST
Astronomical Twilight 6:17 AM EST 7:26 PM EST
Moon 8:49 PM EST (1/29) 8:46 AM EST (1/29)
Length of Visible Light 10h 55m
Length of Day
9h 56m
Waning Gibbous, 94% of the Moon is Illuminated
Jan 29
Waning Gibbous
Feb 3
Last Quarter
Feb 10
New
Feb 17
First Quarter
Feb 25
Full

Hourly Weather History & Observations

Time (EST) Temp. Windchill Dew Point Humidity Pressure Visibility Wind Dir Wind Speed Gust Speed Precip Events Conditions
12:14 AM 38.5 °F - 38.3 °F 99% 29.98 in 0.2 mi Calm Calm - N/A Fog Fog
12:35 AM 38.5 °F 34.1 °F 38.3 °F 99% 29.97 in 0.2 mi ESE 5.8 mph - N/A Fog Fog
1:00 AM 38.5 °F 34.1 °F 38.5 °F 100% 29.96 in 0.5 mi ESE 5.8 mph - N/A Fog Fog
1:14 AM 38.7 °F 35.2 °F 38.5 °F 99% 29.95 in 0.5 mi ESE 4.6 mph - N/A Fog Fog
1:35 AM 38.8 °F 33.2 °F 38.7 °F 99% 29.93 in 0.5 mi ESE 8.1 mph - N/A Fog Fog
1:54 AM 38.8 °F 35.4 °F 38.7 °F 99% 29.94 in 0.5 mi ESE 4.6 mph - N/A Fog Fog
2:15 AM 39.4 °F 32.7 °F 39.0 °F 99% 29.93 in 0.5 mi ESE 10.4 mph - N/A Fog Fog
2:34 AM 39.4 °F 33.8 °F 39.0 °F 99% 29.93 in 0.5 mi SE 8.1 mph - N/A Fog Fog
2:55 AM 39.4 °F 33.2 °F 39.0 °F 99% 29.92 in 0.5 mi SE 9.2 mph - N/A Fog Fog
3:14 AM 39.7 °F 34.3 °F 39.6 °F 99% 29.92 in 0.5 mi SE 8.1 mph - N/A Rain Rain
3:54 AM 41.2 °F 36.6 °F 40.8 °F 99% 29.90 in 0.8 mi SSE 6.9 mph - N/A   Overcast
4:15 AM 42.8 °F 37.5 °F 42.6 °F 99% 29.89 in 2.0 mi ESE 9.2 mph - N/A Rain Light Rain
4:34 AM 42.3 °F 36.3 °F 42.1 °F 99% 29.87 in 7.0 mi SE 10.4 mph - N/A Rain Light Rain
4:59 AM 41.7 °F 36.1 °F 41.5 °F 99% 29.85 in 1.5 mi SE 9.2 mph - N/A   Overcast
5:15 AM 41.9 °F 36.3 °F 41.7 °F 99% 29.84 in 1.2 mi SE 9.2 mph - N/A   Overcast
5:34 AM 41.5 °F 35.0 °F 41.5 °F 100% 29.82 in 0.8 mi SE 11.5 mph - N/A   Overcast
5:54 AM 41.4 °F 35.7 °F 41.2 °F 99% 29.82 in 0.5 mi SSE 9.2 mph - N/A Fog Fog
6:14 AM 42.1 °F 36.1 °F 41.9 °F 99% 29.80 in 0.5 mi SSE 10.4 mph - N/A Fog Fog
6:35 AM 42.3 °F 37.9 °F 42.1 °F 99% 29.81 in 0.2 mi SSE 6.9 mph - N/A Fog Fog
6:55 AM 42.8 °F 38.0 °F 42.6 °F 99% 29.80 in 0.2 mi SSE 8.1 mph - N/A Fog Fog
7:14 AM 44.1 °F 39.0 °F 44.1 °F 100% 29.80 in 0.2 mi South 9.2 mph - N/A   Overcast
7:35 AM 44.1 °F 39.5 °F 43.9 °F 99% 29.80 in 0.2 mi South 8.1 mph - N/A Fog Fog
7:53 AM 44.8 °F 39.4 °F 44.6 °F 99% 29.80 in 0.2 mi South 10.4 mph - N/A Rain Light Rain
8:15 AM 46.8 °F - 46.8 °F 100% 29.80 in 0.5 mi South 8.1 mph - N/A Fog Fog
8:34 AM 48.2 °F - 48.2 °F 100% 29.80 in 0.2 mi South 8.1 mph - N/A Fog Fog
8:54 AM 50.2 °F - 50.2 °F 100% 29.79 in 0.8 mi SSW 10.4 mph - N/A   Overcast
9:15 AM 52.2 °F - 52.0 °F 99% 29.80 in 3.0 mi SSW 11.5 mph - N/A   Overcast
9:34 AM 53.1 °F - 53.1 °F 100% 29.78 in 4.0 mi SSW 11.5 mph 19.6 mph N/A   Overcast
10:14 AM 53.8 °F - 53.8 °F 100% 29.79 in 2.5 mi SSW 11.5 mph 19.6 mph N/A   Overcast
10:34 AM 54.1 °F - 54.1 °F 100% 29.79 in 1.5 mi SSW 13.8 mph 20.7 mph N/A   Overcast
10:55 AM 54.1 °F - 54.1 °F 100% 29.79 in 0.8 mi SSW 11.5 mph 19.6 mph N/A Rain Rain
11:14 AM 54.5 °F - 54.5 °F 100% 29.81 in 2.0 mi SW 16.1 mph 24.2 mph N/A Rain Rain
11:35 AM 54.7 °F - 54.7 °F 100% 29.77 in 3.0 mi SSW 9.2 mph 16.1 mph N/A Rain Light Rain
11:54 AM 54.7 °F - 54.7 °F 100% 29.78 in 4.0 mi SSW 13.8 mph 18.4 mph N/A   Overcast
12:14 PM 54.9 °F - 54.9 °F 100% 29.77 in 2.0 mi SSW 16.1 mph 20.7 mph N/A   Overcast
12:35 PM 54.9 °F - 54.9 °F 100% 29.76 in 1.8 mi SSW 13.8 mph 20.7 mph N/A   Overcast
12:54 PM 55.2 °F - 55.2 °F 100% 29.75 in 2.0 mi SSW 13.8 mph 20.7 mph N/A Rain Light Rain
1:15 PM 55.6 °F - 55.6 °F 100% 29.75 in 1.2 mi SSW 16.1 mph 21.9 mph N/A   Overcast
1:35 PM 55.6 °F - 55.6 °F 100% 29.74 in 1.0 mi SSW 13.8 mph 23.0 mph N/A   Overcast
1:54 PM 55.6 °F - 55.6 °F 100% 29.73 in 1.5 mi SSW 13.8 mph 20.7 mph N/A Rain Light Rain
2:15 PM 55.6 °F - 55.6 °F 100% 29.72 in 1.2 mi SSW 12.7 mph 18.4 mph N/A   Overcast
2:35 PM 55.6 °F - 55.6 °F 100% 29.71 in 1.2 mi SSW 13.8 mph 19.6 mph N/A   Overcast
2:54 PM 55.6 °F - 55.6 °F 100% 29.70 in 1.8 mi SSW 10.4 mph 17.3 mph N/A   Overcast
3:15 PM 55.2 °F - 55.2 °F 100% 29.70 in 2.0 mi South 6.9 mph - N/A Rain Light Rain
3:34 PM 55.2 °F - 55.2 °F 100% 29.69 in 2.0 mi South 9.2 mph - N/A Rain Rain
3:55 PM 55.0 °F - 55.0 °F 100% 29.69 in 1.5 mi South 8.1 mph - N/A Rain Heavy Rain
4:13 PM 55.2 °F - 55.2 °F 100% 29.69 in 2.0 mi South 10.4 mph - N/A Rain Light Rain
4:54 PM 55.4 °F - 55.4 °F 100% 29.69 in 1.8 mi South 10.4 mph - N/A   Light Drizzle
5:14 PM 55.8 °F - 55.8 °F 100% 29.68 in 2.5 mi South 12.7 mph 18.4 mph N/A   Overcast
5:35 PM 55.9 °F - 55.9 °F 100% 29.67 in 4.0 mi South 16.1 mph 23.0 mph N/A Rain Light Rain
5:55 PM 55.9 °F - 55.9 °F 100% 29.67 in 4.0 mi South 17.3 mph 27.6 mph N/A Rain Light Rain
6:14 PM 55.9 °F - 55.9 °F 100% 29.67 in 4.0 mi South 15.0 mph 23.0 mph N/A Rain Rain
6:35 PM 55.8 °F - 55.8 °F 100% 29.65 in 4.0 mi South 12.7 mph 23.0 mph N/A Rain Rain
6:54 PM 55.8 °F - 55.8 °F 100% 29.65 in 4.0 mi South 13.8 mph 19.6 mph N/A Rain Heavy Rain
7:14 PM 55.6 °F - 55.4 °F 99% 29.66 in 4.0 mi South 12.7 mph 19.6 mph N/A Rain Rain
7:34 PM 55.6 °F - 55.2 °F 99% 29.64 in 4.0 mi South 12.7 mph 19.6 mph N/A Rain Light Rain
7:54 PM 55.8 °F - 55.4 °F 99% 29.63 in 5.0 mi South 12.7 mph 20.7 mph N/A   Overcast
8:14 PM 55.8 °F - 55.2 °F 98% 29.61 in 5.0 mi South 15.0 mph - N/A   Overcast
8:34 PM 55.9 °F - 55.0 °F 97% 29.59 in 7.0 mi South 13.8 mph 21.9 mph N/A   Overcast
8:55 PM 55.8 °F - 54.9 °F 97% 29.58 in 5.0 mi South 12.7 mph 21.9 mph N/A   Overcast
9:15 PM 55.6 °F - 54.7 °F 97% 29.56 in 5.0 mi South 13.8 mph 20.7 mph N/A   Overcast
9:34 PM 55.6 °F - 54.7 °F 97% 29.55 in 5.0 mi South 16.1 mph 23.0 mph N/A   Overcast
9:55 PM 55.9 °F - 55.0 °F 97% 29.54 in 5.0 mi South 12.7 mph 23.0 mph N/A   Overcast
10:15 PM 56.5 °F - 55.4 °F 96% 29.52 in 7.0 mi South 18.4 mph 24.2 mph N/A   Overcast
10:17 PM 56.5 °F - 55.4 °F 96% 29.52 in 7.0 mi South 16.1 mph 24.2 mph N/A   Overcast